SCP
0 0 0 0 0 0 0 0 0 0 0 0 0 0 0 0 0 1 1 2 3 3 2 1 1 2 2 1 1 0 1 1 0 0 0 0 0 0 0 0 0 0 0
0 0 0 0 0 0 0 0 0 0 0 0 0 0 0 0 0 -0 0 2 3 2 0 0 0 0 1 1 1 1 0 0 0 0 0 0 0 0 0 0 0 0 0
0 0 0 0 0 0 0 0 0 -0 0 0 0 0 0 0 0 -0 1 3 3 2 0 -0 0 1 1 1 1 1 0 0 0 0 0 0 0 0 0 0 0 0 0
0 0 0 0 0 0 0 0 0 1 0 0 0 0 -0 0 0 1 2 4 1 0 1 2 1 1 1 1 0 1 1 0 0 0 0 0 0 0 0 0 0 0 0
0 0 0 0 0 0 0 1 4 8 8 6 4 2 2 1 1 2 0 1 1 2 2 1 3 2 0 0 0 0 1 0 0 0 0 0 0 0 0 0 0 0 0
0 0 0 0 0 0 0 1 7 6 7 8 6 4 1 1 1 1 1 2 2 1 1 2 1 0 0 0 0 0 0 0 0 0 0 0 0 0 0 0 0 0 0
0 0 0 0 0 0 1 1 1 5 1 0 0 0 1 0 0 0 0 0 0 0 0 0 0 0 1 1 0 0 0 0 0 0 0 0 0 0 0 0 0 0 0
0 0 0 0 0 0 0 0 0 0 0 0 0 0 0 0 0 0 0 0 0 0 0 0 0 0 0 0 0 0 0 1 0 0 0 0 0 0 0 0 0 0 0
0 0 0 0 0 0 0 0 0 0 0 0 0 0 0 0 0 0 0 0 0 0 0 0 0 0 0 0 0 0 0 0 0 0 0 1 0 0 0 0 0 0 0
0 0 0 0 0 0 0 0 0 0 0 0 0 0 0 0 0 0 0 0 0 0 0 0 0 0 0 0 0 0 0 0 0 0 0 0 0 0 0 0 0 0 0
0 0 0 0 0 0 0 0 0 0 0 0 0 0 0 0 0 0 0 0 0 0 0 0 0 0 0 0 0 0 0 0 0 0 0 0 0 0 0 0 0 0 0
0 0 0 0 0 0 0 0 0 0 0 0 0 0 0 0 0 0 0 0 0 0 0 0 0 0 0 0 0 0 0 0 0 0 0 0 0 0 0 0 0 0 0
0 0 0 0 0 0 0 0 0 0 0 0 0 0 0 0 0 0 0 0 0 0 0 0 0 0 0 0 0 0 0 0 0 0 0 0 0 0 0 0 0 0 0
0 0 0 0 0 0 0 0 0 0 0 0 0 0 0 0 0 0 0 0 0 0 0 0 0 0 0 0 0 0 0 0 0 0 0 0 0 0 0 0 0 0 0
0 0 0 0 0 0 0 0 0 0 0 0 0 0 0 0 0 0 0 0 0 0 0 0 0 0 0 0 0 0 0 0 0 0 0 0 0 0 0 0 0 0 0
0 -0 0 0 0 0 0 0 0 0 0 0 0 0 0 0 0 0 0 0 0 0 0 0 0 0 0 0 0 0 0 0 0 0 0 0 0 0 0 0 0 0 0
0 0 0 0 0 0 0 0 0 0 0 0 0 0 0 0 0 0 0 0 0 0 0 0 0 0 0 0 0 0 0 0 0 0 0 0 0 0 0 0 0 0 0
0 0 0 0 0 0 0 0 0 0 0 0 0 0 0 0 0 0 0 0 0 0 0 0 0 0 0 0 0 0 0 0 0 0 0 0 0 0 0 0 0 0 0
0 0 0 0 0 0 0 0 0 0 0 0 0 0 0 0 0 0 0 0 0 0 0 0 0 0 0 0 0 0 0 0 0 0 0 0 0 0 0 0 0 0 0
0 0 0 0 0 0 0 0 0 0 0 0 0 0 0 0 0 0 0 0 0 0 0 0 0 0 0 0 0 0 0 0 0 0 0 0 0 0 0 0 0 0 -0
0 0 0 0 0 0 0 0 0 0 0 0 0 0 0 0 0 0 0 0 0 0 0 0 0 0 0 0 0 0 0 0 0 0 0 0 0 -0 -0 -0 0 -0 0
0 0 0 0 0 0 0 0 0 0 0 0 0 0 0 0 0 0 0 0 0 0 0 0 0 0 0 0 0 0 0 0 0 0 0 0 -0 -0 0 0 -0 -0 -0
0 0 0 0 0 0 0 0 0 0 0 0 0 0 0 0 0 0 0 0 0 0 0 0 0 0 0 0 0 0 0 0 0 0 0 0 0 0 0 0 -0 -0 -0
0 0 0 0 0 0 0 0 0 0 0 0 0 0 0 0 0 0 0 0 0 0 0 0 0 0 0 0 0 0 0 0 0 0 0 0 0 0 0 0 0 0 0
0 0 0 0 0 0 0 0 0 0 0 0 0 0 0 0 0 0 0 0 0 0 0 0 0 0 0 0 0 0 0 0 0 0 0 0 0 0 0 0 0 0 0
0 0 0 0 0 0 0 0 0 0 0 0 0 0 0 0 0 0 0 0 0 -0 -0 -0 0 0 -0 -0 0 0 0 0 0 0 0 0 0 0 0 0 0 0 0
Wind_Speed_500mb
67 62 67 63 56 42 28 20 21 18 35 46 71 98 70 45 59 47 53 48 42 45 47 43 37 54 49 46 42 28 24 31 37 39 34 35 33 35 35 31 37 37 44
51 56 71 68 64 58 45 28 21 15 21 32 13 70 68 46 36 51 51 46 44 54 51 48 36 48 43 42 40 37 41 40 36 35 35 32 36 35 19 26 33 45 47
62 52 59 77 74 69 60 45 28 22 18 19 13 30 25 33 35 62 57 39 43 48 27 37 41 39 37 47 40 45 39 38 43 37 30 14 19 33 45 45 44 45 42
66 61 46 71 82 63 54 59 48 36 24 33 25 20 30 29 38 31 28 41 36 34 30 37 35 30 45 37 36 35 42 42 43 33 35 37 38 37 45 50 53 47 47
58 57 57 61 69 60 66 67 54 51 33 26 31 24 24 29 25 16 18 24 27 35 21 31 32 37 42 45 43 45 48 43 41 41 39 38 40 44 51 57 51 54 58
12 7 10 50 68 65 57 51 48 47 31 20 18 18 24 28 24 26 13 15 22 20 25 36 36 35 42 41 42 43 44 44 44 49 52 51 52 57 55 63 71 76 66
15 17 18 29 37 34 20 27 35 24 18 20 23 24 27 26 27 18 17 19 22 25 28 28 31 32 35 33 32 37 44 49 54 56 57 57 61 64 67 74 83 84 82
40 37 40 44 38 35 28 18 9 22 30 25 16 16 20 17 17 21 18 22 20 23 28 33 38 39 35 34 39 44 47 48 52 55 60 66 68 69 74 80 81 82 78
56 50 47 46 39 33 25 25 14 13 8 9 8 12 11 13 9 13 22 20 19 17 18 20 26 33 38 45 49 53 58 59 62 68 68 70 70 74 80 84 86 86 79
53 45 36 31 32 31 25 9 16 3 5 10 8 6 8 6 7 10 14 21 28 29 28 30 35 40 46 50 54 58 63 67 71 72 71 71 67 69 76 79 79 79 83
39 40 45 41 32 23 21 16 17 7 13 13 11 9 10 10 13 17 22 27 31 37 42 48 50 51 53 55 58 60 63 67 68 69 69 68 67 72 74 74 77 84 86
42 45 50 47 38 41 40 35 26 20 16 12 9 11 15 19 24 29 31 35 38 41 44 49 53 56 57 56 57 56 56 53 55 58 59 62 63 68 67 69 73 78 77
51 52 50 49 43 37 27 21 14 10 8 7 10 15 20 24 26 29 32 36 40 43 47 51 57 60 61 63 65 64 63 64 63 63 62 62 61 65 62 64 72 76 73
58 56 48 39 32 28 20 17 16 10 11 13 14 16 20 22 23 30 36 41 47 53 55 55 56 56 59 64 66 64 65 66 71 75 78 80 78 78 72 67 70 79 83
48 41 36 30 24 17 16 15 13 15 18 17 15 17 18 18 25 34 42 48 47 48 50 53 55 54 49 48 49 53 56 59 65 69 69 77 83 79 76 80 79 74 75
49 41 32 24 16 10 11 16 18 21 22 19 18 16 19 26 36 42 42 43 47 52 49 48 43 41 43 50 55 57 58 58 61 63 67 69 67 67 67 77 92 80 77
43 37 29 18 13 15 16 17 20 23 21 17 17 20 26 29 31 31 36 44 46 43 42 42 44 46 50 60 66 60 61 61 62 64 68 69 66 67 69 64 58 60 75
35 28 17 14 13 16 19 20 27 31 27 19 21 25 30 29 24 33 38 39 37 44 49 57 55 56 58 61 61 60 57 62 68 70 70 69 59 57 54 55 56 59 62
25 18 13 9 14 20 23 28 32 31 24 22 26 28 22 26 32 33 32 34 45 50 57 59 51 53 61 59 59 57 59 64 68 66 66 62 60 63 55 57 61 59 60
14 10 9 14 21 29 33 34 30 24 25 27 26 18 28 30 34 30 30 41 48 57 59 55 50 52 57 59 56 53 56 66 70 66 67 67 62 62 61 59 59 70 70
13 16 17 20 27 32 32 34 31 26 21 16 17 19 24 30 26 23 32 42 51 47 49 52 55 58 55 52 47 49 53 60 68 69 70 69 65 62 53 54 61 66 65
24 25 24 21 27 34 34 25 21 20 19 17 16 19 21 26 16 24 33 40 41 46 54 57 63 59 58 53 50 46 49 52 49 49 50 54 55 50 42 44 47 47 46
24 25 27 28 27 26 26 22 20 20 21 19 16 17 22 10 9 21 33 36 40 49 53 60 68 77 66 58 54 49 41 49 39 33 39 40 34 28 26 17 26 36 41
27 28 29 30 30 27 23 21 25 26 24 21 19 18 22 12 6 18 32 34 41 46 55 63 66 78 66 60 55 40 39 34 31 32 26 27 24 20 10 14 28 45 54
32 31 33 34 32 30 27 27 29 32 29 19 15 16 17 5 10 20 32 29 30 44 47 53 65 75 63 59 42 34 35 42 44 29 18 11 19 38 43 40 46 52 38
39 39 41 39 34 34 37 35 35 37 39 24 16 15 14 2 11 20 20 15 27 33 40 53 62 55 57 45 40 36 39 42 37 31 34 49 51 48 36 23 33 57 63
Wind_Direction_500mb
253 207 211 217 192 196 197 163 144 176 182 204 215 230 243 225 296 201 212 222 236 231 222 225 230 231 222 232 249 259 245 226 239 257 265 268 278 284 290 286 288 295 297
268 223 203 207 206 207 201 187 155 136 170 197 252 228 219 251 225 236 216 218 224 226 241 245 261 249 245 244 246 243 239 256 264 270 274 278 284 289 290 286 291 301 312
255 253 215 208 217 216 209 205 179 157 167 191 160 173 194 180 271 234 230 225 227 238 245 232 238 261 245 241 244 242 246 257 258 261 242 232 244 286 295 300 303 309 314
247 249 244 215 214 211 221 222 213 208 165 180 185 185 199 202 184 214 223 217 212 246 248 234 240 231 225 229 230 224 241 254 256 252 244 250 261 274 286 289 295 301 301
237 235 230 226 203 229 229 211 201 208 203 171 173 191 205 218 223 237 254 233 209 231 246 238 235 227 232 240 239 239 251 257 263 268 273 269 263 264 275 284 284 283 292
99 170 192 218 224 219 199 188 197 206 204 205 179 204 213 211 212 239 205 199 228 249 244 246 253 249 249 251 251 252 247 249 257 265 272 275 278 281 282 282 285 288 289
70 68 83 157 181 172 191 218 228 209 219 219 221 208 210 228 243 247 243 220 202 206 216 215 217 228 242 253 264 264 260 259 262 266 271 274 276 279 282 283 285 286 286
112 105 115 121 140 161 154 129 170 173 206 213 209 182 186 194 193 186 208 209 177 190 210 216 222 227 235 241 249 254 259 263 265 271 276 280 280 281 279 278 278 278 280
90 114 121 117 114 124 116 124 86 104 104 151 222 259 257 252 210 189 198 195 209 236 234 233 233 237 242 247 255 262 266 267 270 272 274 272 274 275 275 275 274 275 278
84 95 105 111 123 130 138 83 332 302 22 18 37 22 334 316 286 286 276 264 256 272 287 286 280 277 276 276 276 275 274 276 275 275 273 272 274 274 273 272 271 271 273
93 98 97 96 105 99 81 101 113 60 75 65 43 36 17 351 331 315 305 299 294 292 291 291 292 294 292 290 288 287 285 284 285 283 283 280 277 274 274 275 275 272 270
123 115 114 109 106 109 104 111 101 86 72 65 27 6 341 329 322 314 310 309 305 297 293 293 296 296 297 295 289 285 281 278 276 275 275 277 278 276 275 274 275 276 277
120 114 109 103 100 97 97 90 95 72 36 10 348 337 330 325 321 318 308 297 297 299 299 298 297 295 293 292 287 285 283 280 278 276 274 273 273 273 272 272 270 268 270
109 101 96 95 94 82 73 77 59 26 341 343 334 329 325 334 317 295 295 299 300 300 302 303 302 302 304 302 302 300 294 288 285 284 284 282 279 276 274 273 272 271 270
103 98 91 89 86 78 41 26 359 335 333 337 343 343 337 297 288 291 300 305 311 316 318 316 316 317 319 321 325 318 310 305 305 301 296 290 286 280 277 276 270 273 276
84 84 84 80 64 35 2 355 340 326 333 350 352 333 305 300 301 309 318 322 326 329 330 332 332 334 333 328 327 326 320 315 306 304 308 305 300 293 290 283 269 268 272
82 80 73 62 32 4 337 320 311 312 325 334 326 306 295 299 308 317 320 324 338 341 342 336 333 329 328 329 330 323 312 308 306 306 311 310 305 300 295 294 290 280 269
76 72 62 30 345 313 295 293 299 310 314 309 301 293 301 315 325 318 322 336 337 339 338 334 327 320 323 327 321 318 311 308 304 301 309 308 308 312 308 302 293 286 284
67 59 41 0 316 300 303 308 311 314 316 298 302 304 320 331 322 330 342 346 338 335 333 335 333 325 322 327 327 320 311 305 308 305 303 308 302 307 305 303 299 294 289
41 15 4 310 305 305 312 316 317 316 309 312 314 338 341 335 336 341 351 344 340 335 337 338 338 333 331 332 329 318 313 309 305 305 304 304 301 302 300 298 297 296 290
356 340 329 332 325 320 329 326 320 316 319 328 341 348 342 335 346 2 349 345 346 341 350 351 349 349 348 344 336 330 317 306 301 299 300 303 303 301 299 294 290 287 290
355 356 354 347 326 321 322 333 347 343 334 336 338 340 332 340 17 359 355 350 349 1 360 359 358 353 347 342 337 335 333 326 304 313 316 315 315 307 299 294 294 296 310
3 353 348 341 345 351 355 356 343 330 325 323 322 327 327 350 19 355 347 356 9 9 6 3 3 357 344 339 336 333 335 335 338 340 339 335 338 336 323 309 286 303 308
19 5 7 10 5 7 2 352 343 339 330 322 317 322 337 353 2 10 4 3 16 7 358 358 356 352 349 347 349 351 6 20 13 17 17 10 26 33 29 295 303 310 320
30 28 26 22 19 20 15 12 13 6 353 339 326 331 338 30 20 21 8 7 17 3 2 3 358 354 359 2 358 18 20 18 24 40 40 14 329 325 324 342 353 357 356
41 40 36 34 35 32 31 21 24 12 4 354 353 345 345 303 5 10 15 52 19 14 24 16 9 9 22 19 32 38 34 35 58 42 4 354 350 348 344 7 44 33 40
Wind_Speed_850mb
67 62 67 63 56 42 28 20 21 18 35 46 71 98 70 45 59 47 53 48 42 45 47 43 37 54 49 46 42 28 24 31 37 39 34 35 33 35 35 31 37 37 44
51 56 71 68 64 58 45 28 21 15 21 32 13 70 68 46 36 51 51 46 44 54 51 48 36 48 43 42 40 37 41 40 36 35 35 32 36 35 19 26 33 45 47
62 52 59 77 74 69 60 45 28 22 18 19 13 30 25 33 35 62 57 39 43 48 27 37 41 39 37 47 40 45 39 38 43 37 30 14 19 33 45 45 44 45 42
66 61 46 71 82 63 54 59 48 36 24 33 25 20 30 29 38 31 28 41 36 34 30 37 35 30 45 37 36 35 42 42 43 33 35 37 38 37 45 50 53 47 47
58 57 57 61 69 60 66 67 54 51 33 26 31 24 24 29 25 16 18 24 27 35 21 31 32 37 42 45 43 45 48 43 41 41 39 38 40 44 51 57 51 54 58
12 7 10 50 68 65 57 51 48 47 31 20 18 18 24 28 24 26 13 15 22 20 25 36 36 35 42 41 42 43 44 44 44 49 52 51 52 57 55 63 71 76 66
15 17 18 29 37 34 20 27 35 24 18 20 23 24 27 26 27 18 17 19 22 25 28 28 31 32 35 33 32 37 44 49 54 56 57 57 61 64 67 74 83 84 82
40 37 40 44 38 35 28 18 9 22 30 25 16 16 20 17 17 21 18 22 20 23 28 33 38 39 35 34 39 44 47 48 52 55 60 66 68 69 74 80 81 82 78
56 50 47 46 39 33 25 25 14 13 8 9 8 12 11 13 9 13 22 20 19 17 18 20 26 33 38 45 49 53 58 59 62 68 68 70 70 74 80 84 86 86 79
53 45 36 31 32 31 25 9 16 3 5 10 8 6 8 6 7 10 14 21 28 29 28 30 35 40 46 50 54 58 63 67 71 72 71 71 67 69 76 79 79 79 83
39 40 45 41 32 23 21 16 17 7 13 13 11 9 10 10 13 17 22 27 31 37 42 48 50 51 53 55 58 60 63 67 68 69 69 68 67 72 74 74 77 84 86
42 45 50 47 38 41 40 35 26 20 16 12 9 11 15 19 24 29 31 35 38 41 44 49 53 56 57 56 57 56 56 53 55 58 59 62 63 68 67 69 73 78 77
51 52 50 49 43 37 27 21 14 10 8 7 10 15 20 24 26 29 32 36 40 43 47 51 57 60 61 63 65 64 63 64 63 63 62 62 61 65 62 64 72 76 73
58 56 48 39 32 28 20 17 16 10 11 13 14 16 20 22 23 30 36 41 47 53 55 55 56 56 59 64 66 64 65 66 71 75 78 80 78 78 72 67 70 79 83
48 41 36 30 24 17 16 15 13 15 18 17 15 17 18 18 25 34 42 48 47 48 50 53 55 54 49 48 49 53 56 59 65 69 69 77 83 79 76 80 79 74 75
49 41 32 24 16 10 11 16 18 21 22 19 18 16 19 26 36 42 42 43 47 52 49 48 43 41 43 50 55 57 58 58 61 63 67 69 67 67 67 77 92 80 77
43 37 29 18 13 15 16 17 20 23 21 17 17 20 26 29 31 31 36 44 46 43 42 42 44 46 50 60 66 60 61 61 62 64 68 69 66 67 69 64 58 60 75
35 28 17 14 13 16 19 20 27 31 27 19 21 25 30 29 24 33 38 39 37 44 49 57 55 56 58 61 61 60 57 62 68 70 70 69 59 57 54 55 56 59 62
25 18 13 9 14 20 23 28 32 31 24 22 26 28 22 26 32 33 32 34 45 50 57 59 51 53 61 59 59 57 59 64 68 66 66 62 60 63 55 57 61 59 60
14 10 9 14 21 29 33 34 30 24 25 27 26 18 28 30 34 30 30 41 48 57 59 55 50 52 57 59 56 53 56 66 70 66 67 67 62 62 61 59 59 70 70
13 16 17 20 27 32 32 34 31 26 21 16 17 19 24 30 26 23 32 42 51 47 49 52 55 58 55 52 47 49 53 60 68 69 70 69 65 62 53 54 61 66 65
24 25 24 21 27 34 34 25 21 20 19 17 16 19 21 26 16 24 33 40 41 46 54 57 63 59 58 53 50 46 49 52 49 49 50 54 55 50 42 44 47 47 46
24 25 27 28 27 26 26 22 20 20 21 19 16 17 22 10 9 21 33 36 40 49 53 60 68 77 66 58 54 49 41 49 39 33 39 40 34 28 26 17 26 36 41
27 28 29 30 30 27 23 21 25 26 24 21 19 18 22 12 6 18 32 34 41 46 55 63 66 78 66 60 55 40 39 34 31 32 26 27 24 20 10 14 28 45 54
32 31 33 34 32 30 27 27 29 32 29 19 15 16 17 5 10 20 32 29 30 44 47 53 65 75 63 59 42 34 35 42 44 29 18 11 19 38 43 40 46 52 38
39 39 41 39 34 34 37 35 35 37 39 24 16 15 14 2 11 20 20 15 27 33 40 53 62 55 57 45 40 36 39 42 37 31 34 49 51 48 36 23 33 57 63
Wind_Direction_850mb
253 207 211 217 192 196 197 163 144 176 182 204 215 230 243 225 296 201 212 222 236 231 222 225 230 231 222 232 249 259 245 226 239 257 265 268 278 284 290 286 288 295 297
268 223 203 207 206 207 201 187 155 136 170 197 252 228 219 251 225 236 216 218 224 226 241 245 261 249 245 244 246 243 239 256 264 270 274 278 284 289 290 286 291 301 312
255 253 215 208 217 216 209 205 179 157 167 191 160 173 194 180 271 234 230 225 227 238 245 232 238 261 245 241 244 242 246 257 258 261 242 232 244 286 295 300 303 309 314
247 249 244 215 214 211 221 222 213 208 165 180 185 185 199 202 184 214 223 217 212 246 248 234 240 231 225 229 230 224 241 254 256 252 244 250 261 274 286 289 295 301 301
237 235 230 226 203 229 229 211 201 208 203 171 173 191 205 218 223 237 254 233 209 231 246 238 235 227 232 240 239 239 251 257 263 268 273 269 263 264 275 284 284 283 292
99 170 192 218 224 219 199 188 197 206 204 205 179 204 213 211 212 239 205 199 228 249 244 246 253 249 249 251 251 252 247 249 257 265 272 275 278 281 282 282 285 288 289
70 68 83 157 181 172 191 218 228 209 219 219 221 208 210 228 243 247 243 220 202 206 216 215 217 228 242 253 264 264 260 259 262 266 271 274 276 279 282 283 285 286 286
112 105 115 121 140 161 154 129 170 173 206 213 209 182 186 194 193 186 208 209 177 190 210 216 222 227 235 241 249 254 259 263 265 271 276 280 280 281 279 278 278 278 280
90 114 121 117 114 124 116 124 86 104 104 151 222 259 257 252 210 189 198 195 209 236 234 233 233 237 242 247 255 262 266 267 270 272 274 272 274 275 275 275 274 275 278
84 95 105 111 123 130 138 83 332 302 22 18 37 22 334 316 286 286 276 264 256 272 287 286 280 277 276 276 276 275 274 276 275 275 273 272 274 274 273 272 271 271 273
93 98 97 96 105 99 81 101 113 60 75 65 43 36 17 351 331 315 305 299 294 292 291 291 292 294 292 290 288 287 285 284 285 283 283 280 277 274 274 275 275 272 270
123 115 114 109 106 109 104 111 101 86 72 65 27 6 341 329 322 314 310 309 305 297 293 293 296 296 297 295 289 285 281 278 276 275 275 277 278 276 275 274 275 276 277
120 114 109 103 100 97 97 90 95 72 36 10 348 337 330 325 321 318 308 297 297 299 299 298 297 295 293 292 287 285 283 280 278 276 274 273 273 273 272 272 270 268 270
109 101 96 95 94 82 73 77 59 26 341 343 334 329 325 334 317 295 295 299 300 300 302 303 302 302 304 302 302 300 294 288 285 284 284 282 279 276 274 273 272 271 270
103 98 91 89 86 78 41 26 359 335 333 337 343 343 337 297 288 291 300 305 311 316 318 316 316 317 319 321 325 318 310 305 305 301 296 290 286 280 277 276 270 273 276
84 84 84 80 64 35 2 355 340 326 333 350 352 333 305 300 301 309 318 322 326 329 330 332 332 334 333 328 327 326 320 315 306 304 308 305 300 293 290 283 269 268 272
82 80 73 62 32 4 337 320 311 312 325 334 326 306 295 299 308 317 320 324 338 341 342 336 333 329 328 329 330 323 312 308 306 306 311 310 305 300 295 294 290 280 269
76 72 62 30 345 313 295 293 299 310 314 309 301 293 301 315 325 318 322 336 337 339 338 334 327 320 323 327 321 318 311 308 304 301 309 308 308 312 308 302 293 286 284
67 59 41 0 316 300 303 308 311 314 316 298 302 304 320 331 322 330 342 346 338 335 333 335 333 325 322 327 327 320 311 305 308 305 303 308 302 307 305 303 299 294 289
41 15 4 310 305 305 312 316 317 316 309 312 314 338 341 335 336 341 351 344 340 335 337 338 338 333 331 332 329 318 313 309 305 305 304 304 301 302 300 298 297 296 290
356 340 329 332 325 320 329 326 320 316 319 328 341 348 342 335 346 2 349 345 346 341 350 351 349 349 348 344 336 330 317 306 301 299 300 303 303 301 299 294 290 287 290
355 356 354 347 326 321 322 333 347 343 334 336 338 340 332 340 17 359 355 350 349 1 360 359 358 353 347 342 337 335 333 326 304 313 316 315 315 307 299 294 294 296 310
3 353 348 341 345 351 355 356 343 330 325 323 322 327 327 350 19 355 347 356 9 9 6 3 3 357 344 339 336 333 335 335 338 340 339 335 338 336 323 309 286 303 308
19 5 7 10 5 7 2 352 343 339 330 322 317 322 337 353 2 10 4 3 16 7 358 358 356 352 349 347 349 351 6 20 13 17 17 10 26 33 29 295 303 310 320
30 28 26 22 19 20 15 12 13 6 353 339 326 331 338 30 20 21 8 7 17 3 2 3 358 354 359 2 358 18 20 18 24 40 40 14 329 325 324 342 353 357 356
41 40 36 34 35 32 31 21 24 12 4 354 353 345 345 303 5 10 15 52 19 14 24 16 9 9 22 19 32 38 34 35 58 42 4 354 350 348 344 7 44 33 40